Home > Weather > Davenport > Past weeks

Flag for USA Past Weather in Davenport, Iowa, USA — Yesterday and Last 2 Weeks

Now
78 °F

Passing clouds.


Feels Like: 80 °F
Forecast: 67 / 86 °F
Wind: 5 mph from Northeast

Location: Davenport Municipal Airport

Current Time: Jul 26, 2016 at 8:22:33 PM

Latest Report: Jul 26, 2016 at 7:52 PM


Visibility: 10 mi

Pressure: 30.01 "Hg

Humidity: 74%

Dew Point: 69 °F

Location of DavenportLocation

Past Weather in Davenport — Graph

°F

Davenport Temperature Yesterday

Maximum temperature yesterday: 84 °F (at 3:52 PM)
Minimum temperature yesterday: 66 °F (at 11:52 PM)
Average temperature yesterday: 75 °F

High & Low Weather Summary for the Past Weeks

 TemperatureHumidityPressure
High92 °F (Jul 21, 3:52 PM)100% (Jul 16, 6:02 AM)30.24 "Hg (Jul 16, 6:02 AM)
Low55 °F (Jul 16, 5:52 AM)48% (Jul 26, 3:52 PM)29.74 "Hg (Jul 13, 4:52 PM)
Average75 °F81%30.00 "Hg
* Reported Jul 11 6:52 PM — Jul 26 6:52 PM, Davenport, Weather by CustomWeather, © 2016

Note: Actual official high and low records may vary slightly from our data, if they occured in-between our weather recording intervals... More about our weather records

Advertising

Davenport Weather History for the Previous 24 Hours

Scroll right to see more
 ConditionsComfort  
Time TempWeatherWind HumidityBarometerVisibility
6:52 PM
Tue, Jul 26
82 °FSunny.6 mph58%30.01 "Hg10 mi
5:52 PM84 °FSunny.6 mph51%30.01 "Hg10 mi
4:52 PM85 °FSunny.7 mph48%30.00 "Hg10 mi
3:52 PM85 °FSunny.5 mph48%30.01 "Hg10 mi
2:52 PM85 °FSunny.7 mph50%30.03 "Hg10 mi
1:52 PM84 °FPassing clouds.No wind49%30.04 "Hg10 mi
12:52 PM85 °FSunny.5 mph50%30.06 "Hg10 mi
11:52 AM81 °FPassing clouds.5 mph54%30.07 "Hg10 mi
10:52 AM82 °FSunny.6 mph58%30.07 "Hg10 mi
9:52 AM79 °FSunny.5 mph65%30.07 "Hg10 mi
8:52 AM76 °FSunny.8 mph74%30.06 "Hg10 mi
7:52 AM73 °FPassing clouds.3 mph81%30.06 "Hg10 mi
6:52 AM67 °FSunny.3 mph90%30.07 "Hg10 mi
5:52 AM64 °FPassing clouds.3 mph94%30.06 "Hg10 mi
4:52 AM65 °FPassing clouds.5 mph94%30.05 "Hg10 mi
3:52 AM65 °FClear.6 mph94%30.05 "Hg10 mi
2:52 AM63 °FClear.3 mph97%30.04 "Hg8 mi
1:52 AM64 °FClear.No wind94%30.04 "Hg9 mi
12:52 AM65 °FClear.3 mph94%30.04 "Hg10 mi
11:52 PM
Mon, Jul 25
66 °FClear.3 mph93%30.04 "Hg10 mi
10:52 PM68 °FClear.3 mph90%30.03 "Hg10 mi
9:52 PM70 °FClear.3 mph87%30.03 "Hg10 mi
8:52 PM73 °FSunny.5 mph81%30.02 "Hg10 mi
Weather by CustomWeather, © 2016

See weather overviewHow to use our weather pages